Weather reports worldwide

Advertisment
Tulloch Bridge, United Kingdom (3047): temperature & dewpoint: 15.11.2017 13:00:00 - 21.11.2017 13:00:00 (GMT)Tulloch Bridge, United Kingdom (3047): wind speed & gusts: 15.11.2017 13:00:00 - 21.11.2017 13:00:00 (GMT)Tulloch Bridge, United Kingdom (3047): wind direction: 15.11.2017 13:00:00 - 21.11.2017 13:00:00 (GMT)Tulloch Bridge, United Kingdom (3047): reduced air pressure: 15.11.2017 13:00:00 - 21.11.2017 13:00:00 (GMT)Tulloch Bridge, United Kingdom (3047): visibility: 15.11.2017 13:00:00 - 21.11.2017 13:00:00 (GMT)Tulloch Bridge, United Kingdom (3047): precipitation: 15.11.2017 13:00:00 - 21.11.2017 13:00:00 (GMT)
Date & Time tt [°C] td [°C] ff [km/h] ff [kn] fx [km/h] fx [kn] dd ppp [hPa] vv [km] rr [mm]
21.11.2017 13:00:00 - - - - - - - - - 0,6
21.11.2017 12:00:00 7,0 6,2 11 6 - - SSE 1000,3 17 0,4
21.11.2017 11:00:00 7,1 6,4 11 6 - - SSE 1001,3 40 0,0
21.11.2017 10:00:00 6,4 5,9 5 3 - - E 1002,6 7 0,0
21.11.2017 09:00:00 6,1 5,4 9 5 - - E 1003,4 10 0,2
21.11.2017 08:00:00 6,4 5,5 8 4 - - SE 1004,2 10 0,0
21.11.2017 07:00:00 6,6 5,7 8 4 - - SE 1004,5 24 0,0
21.11.2017 06:00:00 6,4 5,3 8 4 - - E 1005,0 11 0,0
21.11.2017 05:00:00 6,1 5,2 8 4 - - E 1005,4 50 0,0
21.11.2017 04:00:00 6,3 5,4 8 4 - - E 1005,9 12 0,0
21.11.2017 03:00:00 6,3 5,4 8 4 - - E 1006,4 30 0,0
21.11.2017 02:00:00 6,3 5,2 5 3 - - E 1006,7 50 0,0
21.11.2017 01:00:00 5,9 5,1 4 2 - - ESE 1007,2 35 0,0
21.11.2017 00:00:00 6,1 5,0 9 5 - - ESE 1007,6 40 0,0
20.11.2017 23:00:00 6,6 5,3 9 5 - - SE 1007,7 30 0,0
20.11.2017 22:00:00 5,9 4,8 5 3 - - SE 1007,9 50 0,0
20.11.2017 21:00:00 6,0 5,1 8 4 - - SE 1008,0 23 0,0
20.11.2017 20:00:00 5,6 4,7 5 3 - - E 1008,2 8 0,0
20.11.2017 19:00:00 5,2 4,7 8 4 - - E 1008,4 30 0,0
20.11.2017 18:00:00 4,8 4,2 8 4 - - E 1008,4 45 0,0
20.11.2017 17:00:00 4,7 4,2 5 3 - - E 1008,2 7 0,2
20.11.2017 16:00:00 5,0 4,4 5 3 - - ESE 1007,9 2,4 0,0
20.11.2017 15:00:00 5,5 4,9 8 4 - - E 1007,2 3,1 0,0
20.11.2017 14:00:00 5,9 5,1 2 1 - - E 1007,3 50 0,2
20.11.2017 13:00:00 5,4 4,5 4 2 - - ESE 1007,1 5 0,0
20.11.2017 12:00:00 5,5 4,2 5 3 - - SSW 1007,0 30 0,0
20.11.2017 11:00:00 5,1 3,9 5 3 - - SSE 1006,8 50 0,0
20.11.2017 10:00:00 4,4 3,8 2 1 - - E 1006,6 40 1,0
20.11.2017 09:00:00 4,2 3,2 5 3 - - SE 1006,7 9 2,2
20.11.2017 08:00:00 4,1 2,9 11 6 - - E 1006,3 16 1,4
20.11.2017 07:00:00 4,5 2,8 11 6 - - E 1006,7 50 0,0
20.11.2017 06:00:00 4,5 3,1 13 7 - - SSE 1007,2 10 -
20.11.2017 05:00:00 4,0 2,8 11 6 - - SE 1008,1 16 0,4
20.11.2017 04:00:00 4,3 3,0 15 8 - - ESE 1008,8 7 0,4
20.11.2017 03:00:00 3,7 2,5 13 7 - - SE 1010,0 9 0,4
20.11.2017 02:00:00 2,7 2,0 9 5 - - E 1011,7 6 -
20.11.2017 01:00:00 1,8 1,2 9 5 - - E 1013,1 22 0,0
20.11.2017 00:00:00 2,0 1,3 5 3 - - ESE 1014,5 22 0,2
19.11.2017 23:00:00 1,7 0,8 4 2 - - SE 1015,5 18 0,8
19.11.2017 22:00:00 2,0 1,2 8 4 - - E 1016,6 10 0,8
19.11.2017 21:00:00 2,2 1,4 8 4 - - E 1017,9 10 1,0
19.11.2017 20:00:00 2,8 1,4 5 3 - - SE 1018,8 25 0,0
19.11.2017 19:00:00 2,4 0,9 4 2 - - ESE 1019,3 26 0,0
19.11.2017 18:00:00 2,5 0,7 4 2 - - ESE 1019,8 50 0,0
19.11.2017 17:00:00 2,2 1,1 4 2 - - E 1020,4 40 0,0
19.11.2017 16:00:00 2,4 1,2 2 1 - - NNE 1020,8 40 0,0
19.11.2017 15:00:00 2,9 1,3 2 1 - - SE 1021,3 45 0,0
19.11.2017 14:00:00 3,4 1,1 2 1 - - NNW 1022,0 50 0,0
19.11.2017 13:00:00 3,7 1,5 2 1 - - E 1022,3 45 0,0
19.11.2017 12:00:00 2,0 1,5 4 2 - - NE 1023,2 40 0,0
19.11.2017 11:00:00 0,7 0,1 4 2 - - S 1023,4 45 0,0
19.11.2017 10:00:00 -1,6 -1,8 4 2 - - SSE 1023,7 35 0,0
19.11.2017 09:00:00 -1,3 -1,6 2 1 - - SE 1023,5 10 0,0
19.11.2017 08:00:00 -0,2 -0,4 4 2 - - NNW 1023,6 45 -
19.11.2017 07:00:00 0,0 -0,4 2 1 - - NNW 1023,4 35 0,0
19.11.2017 06:00:00 0,2 -0,2 4 2 - - ENE 1023,3 45 0,0
19.11.2017 05:00:00 1,5 0,7 5 3 - - ENE 1023,2 45 0,0
19.11.2017 04:00:00 2,6 1,0 9 5 - - WNW 1022,9 45 0,0
19.11.2017 03:00:00 2,4 0,9 4 2 - - WNW 1022,9 50 0,0
19.11.2017 02:00:00 1,8 1,1 4 2 - - SW 1022,8 50 0,0
19.11.2017 01:00:00 1,6 0,4 5 3 - - E 1022,5 45 0,0
19.11.2017 00:00:00 1,6 0,0 8 4 - - N 1022,3 40 0,0
18.11.2017 23:00:00 2,9 0,4 18 10 - - W 1022,1 40 0,0
18.11.2017 22:00:00 2,7 0,1 18 10 - - W 1021,4 45 0,0
18.11.2017 21:00:00 2,7 -1,7 9 5 - - WNW 1021,4 35 0,0
18.11.2017 20:00:00 3,5 -2,8 13 7 - - WNW 1021,0 45 0,0
18.11.2017 19:00:00 3,3 -3,1 15 8 - - WNW 1020,8 45 0,0
18.11.2017 18:00:00 3,5 -2,7 15 8 - - WNW 1020,4 45 0,0
18.11.2017 17:00:00 2,8 -2,5 5 3 - - NW 1020,6 35 0,0
18.11.2017 16:00:00 3,6 -1,9 13 7 - - WNW 1020,0 29 0,0
18.11.2017 15:00:00 3,7 -1,6 8 4 - - W 1019,9 35 0,0
18.11.2017 14:00:00 4,3 -1,8 18 10 - - W 1019,7 30 0,0
18.11.2017 13:00:00 3,8 -0,5 21 11 - - W 1019,5 30 0,0
18.11.2017 12:00:00 4,5 -1,8 22 12 - - W 1019,2 40 0,0
18.11.2017 11:00:00 4,3 -2,3 18 10 - - W 1018,8 26 0,0
18.11.2017 10:00:00 3,3 -2,0 16 9 - - W 1019,0 40 0,0
18.11.2017 09:00:00 2,9 -1,2 16 9 - - W 1018,8 40 0,0
18.11.2017 08:00:00 2,7 -0,3 11 6 - - WNW 1019,0 50 0,0
18.11.2017 07:00:00 2,7 -0,4 15 8 - - W 1018,5 45 0,2
18.11.2017 06:00:00 3,5 -1,1 22 12 - - WNW 1017,8 40 0,0
18.11.2017 05:00:00 3,3 -0,1 11 6 - - WNW 1017,5 30 0,0
18.11.2017 04:00:00 3,5 0,6 13 7 - - W 1017,3 30 0,0
18.11.2017 03:00:00 3,9 1,3 21 11 46 25 WNW 1017,1 50 0,0
18.11.2017 02:00:00 3,8 2,3 15 8 65 35 NW 1016,9 50 0,0
18.11.2017 01:00:00 5,1 1,9 21 11 54 29 W 1016,6 8 0,4
18.11.2017 00:00:00 5,5 2,7 16 9 46 25 SW 1016,5 23 0,2
17.11.2017 23:00:00 4,9 3,1 18 10 48 26 SW 1016,9 14 1,0
17.11.2017 22:00:00 5,7 2,7 29 16 55 30 SSW 1016,7 15 0,6
17.11.2017 21:00:00 6,6 1,9 26 14 50 27 SSW 1016,8 23 0,2
17.11.2017 20:00:00 6,1 2,7 21 11 48 26 SW 1017,4 45 0,4
17.11.2017 19:00:00 5,9 2,3 24 13 50 27 SSW 1018,1 50 1,0
17.11.2017 18:00:00 5,8 2,8 21 11 50 27 SSW 1018,8 50 0,8
17.11.2017 17:00:00 6,0 2,7 16 9 - - W 1019,1 6 0,6
17.11.2017 16:00:00 6,2 2,5 15 8 52 28 WSW 1019,2 45 0,4
17.11.2017 15:00:00 6,6 2,1 15 8 48 26 SW 1019,8 35 0,0
17.11.2017 14:00:00 6,4 2,7 15 8 48 26 WSW 1020,1 50 0,4
17.11.2017 13:00:00 5,4 2,9 21 11 57 31 W 1020,8 9 0,6
17.11.2017 12:00:00 5,9 2,4 15 8 48 26 SW 1021,2 50 0,8
17.11.2017 11:00:00 6,1 2,4 11 6 - - WSW 1021,3 50 0,2
17.11.2017 10:00:00 5,3 2,9 15 8 - - W 1022,0 6 1,0
17.11.2017 09:00:00 5,6 2,9 11 6 46 25 W 1022,0 12 0,2
17.11.2017 08:00:00 5,1 2,9 13 7 46 25 W 1022,2 28 1,0
17.11.2017 07:00:00 5,4 3,0 8 4 - - W 1022,2 28 0,4
17.11.2017 06:00:00 6,3 1,7 18 10 46 25 SW 1021,8 50 0,0
17.11.2017 05:00:00 5,0 2,6 16 9 - - W 1022,8 45 0,2
17.11.2017 04:00:00 6,1 1,4 21 11 - - SSW 1022,7 40 0,2
17.11.2017 03:00:00 5,4 0,9 18 10 - - SSW 1023,2 50 0,2
17.11.2017 02:00:00 5,4 0,7 18 10 - - SSW 1023,6 45 0,0
17.11.2017 01:00:00 4,5 1,3 11 6 - - WSW 1024,1 45 0,0
17.11.2017 00:00:00 4,4 0,3 13 7 - - SW 1024,0 13 0,0
16.11.2017 23:00:00 3,7 0,3 5 3 - - W 1024,0 35 0,0
16.11.2017 22:00:00 3,0 1,1 9 5 - - NW 1024,0 30 0,0
16.11.2017 21:00:00 3,5 1,2 9 5 - - WNW 1023,7 35 0,0
16.11.2017 20:00:00 2,8 1,2 9 5 - - WNW 1023,3 35 0,2
16.11.2017 19:00:00 2,9 1,0 13 7 - - WNW 1022,4 50 0,0
16.11.2017 18:00:00 3,2 1,7 9 5 - - W 1022,2 11 0,2
16.11.2017 17:00:00 3,4 1,1 9 5 - - WNW 1021,5 35 -
16.11.2017 16:00:00 4,5 -0,4 11 6 46 25 W 1020,1 50 0,0
16.11.2017 15:00:00 4,4 0,1 15 8 48 26 SW 1019,7 40 0,0
16.11.2017 14:00:00 5,3 -0,2 21 11 50 27 WNW 1018,6 30 0,0
16.11.2017 13:00:00 5,1 -0,2 15 8 50 27 W 1017,9 30 0,0
16.11.2017 12:00:00 4,3 0,6 11 6 - - W 1017,6 35 0,2
16.11.2017 11:00:00 4,5 -0,6 18 10 50 27 SSW 1016,7 30 0,0
16.11.2017 10:00:00 4,5 0,9 9 5 - - SSW 1015,3 45 0,2
16.11.2017 09:00:00 4,4 0,4 15 8 - - SSW 1014,2 45 0,0
16.11.2017 08:00:00 4,0 1,8 15 8 54 29 W 1012,9 40 0,4
16.11.2017 07:00:00 4,6 2,3 16 9 68 37 W 1011,4 40 1,8
16.11.2017 06:00:00 6,8 3,8 15 8 - - WSW 1009,3 8 0,4
16.11.2017 05:00:00 6,1 4,0 18 10 - - SW 1009,3 16 4,0
16.11.2017 04:00:00 7,4 5,3 22 12 63 34 W 1009,1 13 1,8
16.11.2017 03:00:00 8,8 7,9 29 16 46 25 S 1007,5 11 0,4
16.11.2017 02:00:00 8,9 7,7 24 13 - - S 1009,3 10 1,0
16.11.2017 01:00:00 8,8 7,4 22 12 54 29 SSW 1010,4 30 0,0
16.11.2017 00:00:00 8,7 7,5 26 14 48 26 S 1011,3 50 0,8
15.11.2017 23:00:00 7,6 6,9 21 11 - - SSW 1012,6 6 1,2
15.11.2017 22:00:00 7,5 6,3 18 10 - - S 1013,7 3,6 0,0
15.11.2017 21:00:00 7,5 5,2 21 11 - - SSW 1014,4 15 0,0
15.11.2017 20:00:00 7,3 4,4 13 7 - - SSW 1015,9 30 0,0
15.11.2017 19:00:00 7,3 4,1 16 9 - - S 1017,0 40 -
15.11.2017 18:00:00 6,9 3,9 15 8 - - SSW 1017,6 50 0,2
15.11.2017 17:00:00 7,1 3,3 5 3 - - SSW 1018,7 25 0,0
15.11.2017 16:00:00 7,2 3,5 5 3 - - S 1019,5 50 0,0
15.11.2017 15:00:00 7,1 4,2 13 7 - - SW 1020,3 45 0,0
15.11.2017 14:00:00 7,1 4,0 16 9 - - S 1021,0 40 0,0
15.11.2017 13:00:00 6,9 4,0 11 6 - - S 1022,0 45 0,0

tt = temperature
td = dewpoint
ff = wind speed
fx = gusts
dd = wind direction
ppp = reduced air pressure
vv = visibility
rr = precipitation

Next stations